Time,TemperatureF,DewpointF,PressureIn,WindDirection,WindDirectionDegrees,WindSpeedMPH,WindSpeedGustMPH,Humidity,HourlyPrecipIn,Conditions,Clouds,dailyrainin,SoftwareType,DateUTC
2013-08-27 00:01:00,70.2,66.8,30.01,North,9,0.0,0.0,89,0.00,,,0.00,Wunderground v.1.15,2013-08-27 04:01:00,
2013-08-27 00:02:00,70.2,67.1,30.01,North,9,0.0,0.0,90,0.00,,,0.00,Wunderground v.1.15,2013-08-27 04:02:00,
2013-08-27 00:03:00,70.2,67.1,30.01,North,9,0.0,0.0,90,0.00,,,0.00,Wunderground v.1.15,2013-08-27 04:03:00,
2013-08-27 00:04:00,70.2,67.1,30.01,North,9,0.0,0.0,90,0.00,,,0.00,Wunderground v.1.15,2013-08-27 04:04:00,
2013-08-27 00:09:00,70.1,67.0,30.01,North,9,0.0,0.0,90,0.00,,,0.00,Wunderground v.1.15,2013-08-27 04:09:00,
2013-08-27 00:11:00,70.1,67.0,30.01,North,9,0.0,0.0,90,0.00,,,0.00,Wunderground v.1.15,2013-08-27 04:11:00,
2013-08-27 00:17:00,70.1,67.0,30.01,North,9,0.0,0.0,90,0.00,,,0.00,Wunderground v.1.15,2013-08-27 04:17:00,
2013-08-27 00:22:00,70.1,66.7,30.01,ENE,76,0.0,0.0,89,0.00,,,0.00,Wunderground v.1.15,2013-08-27 04:22:00,
2013-08-27 00:27:00,70.0,66.6,30.01,ENE,76,0.0,0.0,89,0.00,,,0.00,Wunderground v.1.15,2013-08-27 04:27:00,
2013-08-27 00:33:00,69.9,66.5,30.01,ENE,76,0.0,0.0,89,0.00,,,0.00,Wunderground v.1.15,2013-08-27 04:33:00,
2013-08-27 00:38:00,69.9,66.8,30.01,ENE,76,0.0,0.0,90,0.00,,,0.00,Wunderground v.1.15,2013-08-27 04:38:00,
2013-08-27 00:43:00,69.9,66.8,30.01,ENE,76,0.0,0.0,90,0.00,,,0.00,Wunderground v.1.15,2013-08-27 04:43:00,
2013-08-27 00:49:00,69.9,66.8,30.01,ENE,76,0.0,0.0,90,0.00,,,0.00,Wunderground v.1.15,2013-08-27 04:49:00,
2013-08-27 00:54:00,69.9,66.8,30.01,ENE,76,0.0,0.0,90,0.00,,,0.00,Wunderground v.1.15,2013-08-27 04:54:00,
2013-08-27 01:00:00,69.9,67.2,30.00,ENE,76,0.0,0.0,91,0.00,,,0.00,Wunderground v.1.15,2013-08-27 05:00:00,
2013-08-27 01:06:00,69.9,67.2,30.01,ENE,76,0.0,0.0,91,0.00,,,0.00,Wunderground v.1.15,2013-08-27 05:06:00,
2013-08-27 01:11:00,69.9,67.2,30.01,ENE,76,0.0,0.0,91,0.00,,,0.00,Wunderground v.1.15,2013-08-27 05:11:00,
2013-08-27 01:16:00,69.9,67.2,30.00,ENE,76,0.0,0.0,91,0.00,,,0.00,Wunderground v.1.15,2013-08-27 05:16:00,
2013-08-27 01:21:00,69.8,67.1,30.01,ENE,76,0.0,0.0,91,0.00,,,0.00,Wunderground v.1.15,2013-08-27 05:21:00,
2013-08-27 01:27:00,69.9,67.2,30.00,ENE,76,0.0,0.0,91,0.00,,,0.00,Wunderground v.1.15,2013-08-27 05:27:00,
2013-08-27 01:32:00,70.0,67.3,30.00,ENE,76,0.0,0.0,91,0.00,,,0.00,Wunderground v.1.15,2013-08-27 05:32:00,
2013-08-27 01:37:00,70.0,67.3,30.00,ENE,76,0.0,0.0,91,0.00,,,0.00,Wunderground v.1.15,2013-08-27 05:37:00,
2013-08-27 01:42:00,70.1,67.3,30.00,ENE,76,0.0,0.0,91,0.00,,,0.00,Wunderground v.1.15,2013-08-27 05:42:00,
2013-08-27 01:47:00,70.0,67.3,30.00,ENE,76,0.0,0.0,91,0.00,,,0.00,Wunderground v.1.15,2013-08-27 05:47:00,
2013-08-27 01:52:00,70.0,67.3,30.00,ENE,76,0.0,0.0,91,0.00,,,0.00,Wunderground v.1.15,2013-08-27 05:52:00,
2013-08-27 01:58:00,70.0,67.3,30.00,ENE,76,0.0,0.0,91,0.00,,,0.00,Wunderground v.1.15,2013-08-27 05:58:00,
2013-08-27 02:03:00,69.9,67.2,29.99,ENE,76,0.0,0.0,91,0.00,,,0.00,Wunderground v.1.15,2013-08-27 06:03:00,
2013-08-27 02:08:00,69.9,67.2,29.99,ENE,76,0.0,0.0,91,0.00,,,0.00,Wunderground v.1.15,2013-08-27 06:08:00,
2013-08-27 02:14:00,70.0,67.3,29.99,ENE,76,0.0,0.0,91,0.00,,,0.00,Wunderground v.1.15,2013-08-27 06:14:00,
2013-08-27 02:19:00,70.1,67.3,29.99,ENE,76,0.0,0.0,91,0.00,,,0.00,Wunderground v.1.15,2013-08-27 06:19:00,
2013-08-27 02:24:00,70.2,67.4,29.99,ENE,76,0.0,0.0,91,0.00,,,0.00,Wunderground v.1.15,2013-08-27 06:24:00,
2013-08-27 02:29:00,70.3,67.5,29.99,ENE,76,0.0,0.0,91,0.00,,,0.00,Wunderground v.1.15,2013-08-27 06:29:00,
2013-08-27 02:35:00,70.3,67.5,29.99,ENE,76,0.0,0.0,91,0.00,,,0.00,Wunderground v.1.15,2013-08-27 06:35:00,
2013-08-27 02:40:00,70.3,67.5,29.99,ENE,76,0.0,0.0,91,0.00,,,0.00,Wunderground v.1.15,2013-08-27 06:40:00,
2013-08-27 02:45:00,70.3,67.5,29.99,ENE,76,0.0,0.0,91,0.00,,,0.00,Wunderground v.1.15,2013-08-27 06:45:00,
2013-08-27 02:51:00,70.4,67.6,29.99,ENE,76,0.0,0.0,91,0.00,,,0.00,Wunderground v.1.15,2013-08-27 06:51:00,
2013-08-27 02:57:00,70.5,67.7,29.98,ENE,76,0.0,0.0,91,0.00,,,0.00,Wunderground v.1.15,2013-08-27 06:57:00,
2013-08-27 03:03:00,70.6,67.8,29.98,ENE,76,0.0,0.0,91,0.00,,,0.00,Wunderground v.1.15,2013-08-27 07:03:00,
2013-08-27 03:08:00,70.6,67.8,29.98,ENE,76,0.0,0.0,91,0.00,,,0.00,Wunderground v.1.15,2013-08-27 07:08:00,
2013-08-27 03:13:00,70.6,67.5,29.98,ESE,113,0.0,1.0,90,0.00,,,0.00,Wunderground v.1.15,2013-08-27 07:13:00,
2013-08-27 03:18:00,70.5,67.7,29.98,ESE,113,0.0,1.0,91,0.00,,,0.00,Wunderground v.1.15,2013-08-27 07:18:00,
2013-08-27 03:24:00,70.4,67.3,29.98,ESE,113,0.0,0.0,90,0.00,,,0.00,Wunderground v.1.15,2013-08-27 07:24:00,
2013-08-27 03:29:00,70.3,67.5,29.98,ESE,113,0.0,0.0,91,0.00,,,0.00,Wunderground v.1.15,2013-08-27 07:29:00,
2013-08-27 03:34:00,70.3,67.5,29.97,ESE,113,0.0,0.0,91,0.00,,,0.00,Wunderground v.1.15,2013-08-27 07:34:00,
2013-08-27 03:39:00,70.2,67.4,29.97,ESE,113,0.0,0.0,91,0.00,,,0.00,Wunderground v.1.15,2013-08-27 07:39:00,
2013-08-27 03:44:00,70.1,67.3,29.97,ESE,113,0.0,0.0,91,0.00,,,0.00,Wunderground v.1.15,2013-08-27 07:44:00,
2013-08-27 03:50:00,70.1,67.3,29.97,ESE,113,0.0,0.0,91,0.00,,,0.00,Wunderground v.1.15,2013-08-27 07:50:00,
2013-08-27 03:55:00,69.9,67.2,29.97,ESE,113,0.0,0.0,91,0.00,,,0.00,Wunderground v.1.15,2013-08-27 07:55:00,
2013-08-27 04:00:00,69.8,67.1,29.97,ESE,113,0.0,0.0,91,0.00,,,0.00,Wunderground v.1.15,2013-08-27 08:00:00,
2013-08-27 04:06:00,69.7,67.3,29.97,ESE,113,0.0,0.0,92,0.00,,,0.00,Wunderground v.1.15,2013-08-27 08:06:00,
2013-08-27 04:12:00,69.6,67.2,29.97,ESE,113,0.0,0.0,92,0.00,,,0.00,Wunderground v.1.15,2013-08-27 08:12:00,
2013-08-27 04:17:00,69.5,67.1,29.97,ESE,113,0.0,0.0,92,0.00,,,0.00,Wunderground v.1.15,2013-08-27 08:17:00,
2013-08-27 04:22:00,69.5,67.4,29.98,ESE,113,0.0,0.0,93,0.00,,,0.00,Wunderground v.1.15,2013-08-27 08:22:00,
2013-08-27 04:27:00,69.4,67.3,29.98,ESE,113,0.0,0.0,93,0.00,,,0.00,Wunderground v.1.15,2013-08-27 08:27:00,
2013-08-27 04:33:00,69.4,67.3,29.98,ESE,113,0.0,0.0,93,0.00,,,0.00,Wunderground v.1.15,2013-08-27 08:33:00,
2013-08-27 04:38:00,69.5,67.4,29.97,ESE,113,0.0,0.0,93,0.00,,,0.00,Wunderground v.1.15,2013-08-27 08:38:00,
2013-08-27 04:43:00,69.4,67.3,29.97,ESE,113,0.0,0.0,93,0.00,,,0.00,Wunderground v.1.15,2013-08-27 08:43:00,
2013-08-27 04:48:00,69.4,67.3,29.97,ESE,113,0.0,0.0,93,0.00,,,0.00,Wunderground v.1.15,2013-08-27 08:48:00,
2013-08-27 04:53:00,69.4,67.3,29.97,ESE,113,0.0,0.0,93,0.00,,,0.00,Wunderground v.1.15,2013-08-27 08:53:00,
2013-08-27 04:58:00,69.4,67.6,29.97,ESE,113,0.0,0.0,94,0.00,,,0.00,Wunderground v.1.15,2013-08-27 08:58:00,
2013-08-27 05:04:00,69.3,67.5,29.97,ESE,113,0.0,0.0,94,0.00,,,0.00,Wunderground v.1.15,2013-08-27 09:04:00,
2013-08-27 05:09:00,69.3,67.5,29.97,ESE,113,0.0,0.0,94,0.00,,,0.00,Wunderground v.1.15,2013-08-27 09:09:00,
2013-08-27 05:14:00,69.4,67.6,29.97,ESE,113,0.0,0.0,94,0.00,,,0.00,Wunderground v.1.15,2013-08-27 09:14:00,
2013-08-27 05:19:00,69.4,67.6,29.97,ESE,113,0.0,0.0,94,0.00,,,0.00,Wunderground v.1.15,2013-08-27 09:19:00,
2013-08-27 05:24:00,69.4,67.6,29.97,ESE,113,0.0,0.0,94,0.00,,,0.00,Wunderground v.1.15,2013-08-27 09:24:00,
2013-08-27 05:30:00,69.5,67.7,29.97,ESE,113,0.0,0.0,94,0.00,,,0.00,Wunderground v.1.15,2013-08-27 09:30:00,
2013-08-27 05:35:00,69.5,67.7,29.97,ESE,113,0.0,0.0,94,0.00,,,0.00,Wunderground v.1.15,2013-08-27 09:35:00,
2013-08-27 05:40:00,69.5,67.7,29.97,ESE,113,0.0,0.0,94,0.00,,,0.00,Wunderground v.1.15,2013-08-27 09:40:00,
2013-08-27 05:45:00,69.5,67.7,29.97,ESE,113,0.0,0.0,94,0.00,,,0.00,Wunderground v.1.15,2013-08-27 09:45:00,
2013-08-27 05:51:00,69.5,67.7,29.97,ESE,113,0.0,0.0,94,0.00,,,0.00,Wunderground v.1.15,2013-08-27 09:51:00,
2013-08-27 05:56:00,69.4,67.6,29.97,ESE,113,0.0,0.0,94,0.00,,,0.00,Wunderground v.1.15,2013-08-27 09:56:00,
2013-08-27 06:01:00,69.4,67.6,29.97,ESE,113,0.0,0.0,94,0.00,,,0.00,Wunderground v.1.15,2013-08-27 10:01:00,
2013-08-27 06:07:00,69.4,67.6,29.97,ESE,113,0.0,0.0,94,0.00,,,0.00,Wunderground v.1.15,2013-08-27 10:07:00,
2013-08-27 06:12:00,69.5,67.7,29.98,ESE,113,0.0,0.0,94,0.00,,,0.00,Wunderground v.1.15,2013-08-27 10:12:00,
2013-08-27 06:17:00,69.5,67.7,29.97,ESE,113,0.0,0.0,94,0.00,,,0.00,Wunderground v.1.15,2013-08-27 10:17:00,
2013-08-27 06:22:00,69.4,67.6,29.98,ESE,113,0.0,0.0,94,0.00,,,0.00,Wunderground v.1.15,2013-08-27 10:22:00,
2013-08-27 06:27:00,69.4,67.6,29.98,ESE,113,0.0,0.0,94,0.00,,,0.00,Wunderground v.1.15,2013-08-27 10:27:00,
2013-08-27 06:32:00,69.5,67.7,29.98,ESE,113,0.0,0.0,94,0.00,,,0.00,Wunderground v.1.15,2013-08-27 10:32:00,
2013-08-27 06:38:00,69.4,67.6,29.98,ESE,113,0.0,0.0,94,0.00,,,0.00,Wunderground v.1.15,2013-08-27 10:38:00,
2013-08-27 06:43:00,69.4,67.6,29.98,ESE,113,0.0,0.0,94,0.00,,,0.00,Wunderground v.1.15,2013-08-27 10:43:00,
2013-08-27 06:49:00,69.4,67.6,29.98,ESE,113,0.0,0.0,94,0.00,,,0.00,Wunderground v.1.15,2013-08-27 10:49:00,
2013-08-27 06:54:00,69.4,67.6,29.98,ESE,113,0.0,0.0,94,0.00,,,0.00,Wunderground v.1.15,2013-08-27 10:54:00,
2013-08-27 06:59:00,69.5,68.0,29.98,ESE,113,0.0,0.0,95,0.00,,,0.00,Wunderground v.1.15,2013-08-27 10:59:00,
2013-08-27 07:04:00,69.5,68.0,29.98,ESE,113,0.0,0.0,95,0.00,,,0.00,Wunderground v.1.15,2013-08-27 11:04:00,
2013-08-27 07:10:00,69.7,68.2,29.98,ESE,113,0.0,0.0,95,0.00,,,0.00,Wunderground v.1.15,2013-08-27 11:10:00,
2013-08-27 07:15:00,69.7,68.2,29.98,ESE,113,0.0,0.0,95,0.00,,,0.00,Wunderground v.1.15,2013-08-27 11:15:00,
2013-08-27 07:21:00,69.8,68.3,29.98,ESE,113,0.0,0.0,95,0.00,,,0.00,Wunderground v.1.15,2013-08-27 11:21:00,
2013-08-27 07:27:00,70.0,68.5,29.98,ESE,113,0.0,0.0,95,0.00,,,0.00,Wunderground v.1.15,2013-08-27 11:27:00,
2013-08-27 07:32:00,70.1,68.6,29.98,ESE,113,0.0,0.0,95,0.00,,,0.00,Wunderground v.1.15,2013-08-27 11:32:00,
2013-08-27 07:37:00,70.4,68.9,29.98,ESE,113,0.0,0.0,95,0.00,,,0.00,Wunderground v.1.15,2013-08-27 11:37:00,
2013-08-27 07:42:00,70.7,69.2,29.98,ESE,113,0.0,0.0,95,0.00,,,0.00,Wunderground v.1.15,2013-08-27 11:42:00,
2013-08-27 07:48:00,71.1,69.6,29.98,ESE,113,0.0,0.0,95,0.00,,,0.00,Wunderground v.1.15,2013-08-27 11:48:00,
2013-08-27 07:53:00,71.4,69.6,29.98,ESE,113,0.0,0.0,94,0.00,,,0.00,Wunderground v.1.15,2013-08-27 11:53:00,
2013-08-27 07:58:00,71.7,69.3,29.98,ESE,113,0.0,0.0,92,0.00,,,0.00,Wunderground v.1.15,2013-08-27 11:58:00,
2013-08-27 08:03:00,72.0,69.2,29.98,ESE,113,0.0,0.0,91,0.00,,,0.00,Wunderground v.1.15,2013-08-27 12:03:00,
2013-08-27 08:08:00,72.2,69.1,29.98,ESE,113,0.0,0.0,90,0.00,,,0.00,Wunderground v.1.15,2013-08-27 12:08:00,
2013-08-27 08:14:00,72.7,69.9,29.98,ESE,113,0.0,0.0,91,0.00,,,0.00,Wunderground v.1.15,2013-08-27 12:14:00,
2013-08-27 08:19:00,73.1,69.7,29.98,ESE,113,0.0,0.0,89,0.00,,,0.00,Wunderground v.1.15,2013-08-27 12:19:00,
2013-08-27 08:24:00,73.5,70.4,29.99,ESE,113,0.0,0.0,90,0.00,,,0.00,Wunderground v.1.15,2013-08-27 12:24:00,
2013-08-27 08:29:00,74.0,70.2,29.98,ESE,113,0.0,0.0,88,0.00,,,0.00,Wunderground v.1.15,2013-08-27 12:29:00,
2013-08-27 08:34:00,74.4,70.3,29.98,ESE,113,0.0,1.0,87,0.00,,,0.00,Wunderground v.1.15,2013-08-27 12:34:00,
2013-08-27 08:39:00,74.7,69.9,29.98,ESE,114,0.0,1.0,85,0.00,,,0.00,Wunderground v.1.15,2013-08-27 12:39:00,
2013-08-27 08:45:00,75.2,70.4,29.98,ESE,114,0.0,1.0,85,0.00,,,0.00,Wunderground v.1.15,2013-08-27 12:45:00,
2013-08-27 08:50:00,75.8,70.6,29.98,ESE,119,0.0,0.0,84,0.00,,,0.00,Wunderground v.1.15,2013-08-27 12:50:00,
2013-08-27 08:55:00,76.3,71.1,29.98,SE,140,0.0,1.0,84,0.00,,,0.00,Wunderground v.1.15,2013-08-27 12:55:00,
2013-08-27 09:00:00,76.7,70.8,29.98,SE,124,1.0,1.0,82,0.00,,,0.00,Wunderground v.1.15,2013-08-27 13:00:00,
2013-08-27 09:06:00,77.3,71.4,29.98,SE,124,0.0,1.0,82,0.00,,,0.00,Wunderground v.1.15,2013-08-27 13:06:00,
2013-08-27 09:11:00,77.8,71.1,29.97,SE,130,0.0,2.0,80,0.00,,,0.00,Wunderground v.1.15,2013-08-27 13:11:00,
2013-08-27 09:17:00,78.0,70.6,29.98,East,101,1.0,2.0,78,0.00,,,0.00,Wunderground v.1.15,2013-08-27 13:17:00,
2013-08-27 09:22:00,78.2,71.2,29.98,ESE,113,1.0,2.0,79,0.00,,,0.00,Wunderground v.1.15,2013-08-27 13:22:00,
2013-08-27 09:27:00,78.3,70.9,29.98,East,98,0.0,2.0,78,0.00,,,0.00,Wunderground v.1.15,2013-08-27 13:27:00,
2013-08-27 09:32:00,78.3,71.2,29.98,East,101,0.0,1.0,79,0.00,,,0.00,Wunderground v.1.15,2013-08-27 13:32:00,
2013-08-27 09:38:00,78.5,71.8,29.98,ESE,109,1.0,3.0,80,0.00,,,0.00,Wunderground v.1.15,2013-08-27 13:38:00,
2013-08-27 09:43:00,78.6,71.5,29.97,ESE,110,1.0,1.0,79,0.00,,,0.00,Wunderground v.1.15,2013-08-27 13:43:00,
2013-08-27 09:48:00,78.9,71.5,29.97,ESE,109,0.0,1.0,78,0.00,,,0.00,Wunderground v.1.15,2013-08-27 13:48:00,
2013-08-27 09:53:00,79.2,71.0,29.97,ESE,110,1.0,1.0,76,0.00,,,0.00,Wunderground v.1.15,2013-08-27 13:53:00,
2013-08-27 09:58:00,79.4,71.9,29.97,ENE,67,1.0,1.0,78,0.00,,,0.00,Wunderground v.1.15,2013-08-27 13:58:00,
2013-08-27 10:04:00,79.4,71.6,29.97,ESE,113,1.0,1.0,77,0.00,,,0.00,Wunderground v.1.15,2013-08-27 14:04:00,
2013-08-27 10:09:00,79.5,71.3,29.97,ESE,113,0.0,1.0,76,0.00,,,0.00,Wunderground v.1.15,2013-08-27 14:09:00,
2013-08-27 10:14:00,79.4,71.2,29.97,ESE,104,0.0,2.0,76,0.00,,,0.00,Wunderground v.1.15,2013-08-27 14:14:00,
2013-08-27 10:19:00,79.3,71.5,29.97,ESE,104,0.0,2.0,77,0.00,,,0.00,Wunderground v.1.15,2013-08-27 14:19:00,
2013-08-27 10:24:00,79.0,71.6,29.97,ESE,119,0.0,0.0,78,0.00,,,0.00,Wunderground v.1.15,2013-08-27 14:24:00,
2013-08-27 10:30:00,78.7,70.9,29.98,ESE,119,0.0,0.0,77,0.00,,,0.00,Wunderground v.1.15,2013-08-27 14:30:00,
2013-08-27 10:35:00,78.5,71.4,29.98,ESE,119,0.0,0.0,79,0.00,,,0.00,Wunderground v.1.15,2013-08-27 14:35:00,
2013-08-27 10:40:00,78.2,71.2,29.98,SE,136,0.0,0.0,79,0.00,,,0.00,Wunderground v.1.15,2013-08-27 14:40:00,
2013-08-27 10:46:00,78.2,71.2,29.98,SE,125,0.0,1.0,79,0.00,,,0.00,Wunderground v.1.15,2013-08-27 14:46:00,
2013-08-27 10:51:00,78.3,71.2,29.98,SE,125,0.0,0.0,79,0.00,,,0.00,Wunderground v.1.15,2013-08-27 14:51:00,
2013-08-27 10:57:00,78.4,71.7,29.98,SE,125,0.0,0.0,80,0.00,,,0.00,Wunderground v.1.15,2013-08-27 14:57:00,
2013-08-27 11:02:00,78.4,71.7,29.98,SE,124,0.0,0.0,80,0.00,,,0.00,Wunderground v.1.15,2013-08-27 15:02:00,
2013-08-27 11:07:00,78.1,71.4,29.98,SE,126,0.0,0.0,80,0.00,,,0.00,Wunderground v.1.15,2013-08-27 15:07:00,
2013-08-27 11:13:00,78.0,71.7,29.98,ESE,123,0.0,0.0,81,0.00,,,0.00,Wunderground v.1.15,2013-08-27 15:13:00,
2013-08-27 11:18:00,78.1,71.1,29.98,ESE,123,0.0,1.0,79,0.00,,,0.00,Wunderground v.1.15,2013-08-27 15:18:00,
2013-08-27 11:23:00,78.5,71.4,29.98,East,101,0.0,1.0,79,0.00,,,0.00,Wunderground v.1.15,2013-08-27 15:23:00,
2013-08-27 11:28:00,78.8,72.1,29.98,ESE,111,0.0,2.0,80,0.00,,,0.00,Wunderground v.1.15,2013-08-27 15:28:00,
2013-08-27 11:33:00,79.1,72.0,29.99,ESE,111,0.0,0.0,79,0.00,,,0.00,Wunderground v.1.15,2013-08-27 15:33:00,
2013-08-27 11:39:00,79.2,72.9,29.98,ESE,113,0.0,1.0,81,0.00,,,0.00,Wunderground v.1.15,2013-08-27 15:39:00,
2013-08-27 11:44:00,79.1,71.6,29.98,ESE,113,0.0,0.0,78,0.00,,,0.00,Wunderground v.1.15,2013-08-27 15:44:00,
2013-08-27 11:49:00,79.1,71.6,29.98,ESE,119,0.0,2.0,78,0.00,,,0.00,Wunderground v.1.15,2013-08-27 15:49:00,
2013-08-27 11:54:00,79.0,72.3,29.98,ESE,122,0.0,2.0,80,0.00,,,0.00,Wunderground v.1.15,2013-08-27 15:54:00,
2013-08-27 11:59:00,79.2,71.7,29.98,ESE,113,1.0,2.0,78,0.00,,,0.00,Wunderground v.1.15,2013-08-27 15:59:00,
2013-08-27 12:04:00,79.5,71.3,29.98,ESE,108,0.0,1.0,76,0.00,,,0.00,Wunderground v.1.15,2013-08-27 16:04:00,
2013-08-27 12:10:00,79.6,72.1,29.98,ESE,115,0.0,0.0,78,0.00,,,0.00,Wunderground v.1.15,2013-08-27 16:10:00,
2013-08-27 12:15:00,79.3,71.5,29.98,ESE,115,0.0,0.0,77,0.00,,,0.00,Wunderground v.1.15,2013-08-27 16:15:00,
2013-08-27 12:20:00,78.9,72.2,29.98,ESE,115,0.0,0.0,80,0.00,,,0.00,Wunderground v.1.15,2013-08-27 16:20:00,
2013-08-27 12:26:00,78.4,71.7,29.98,ESE,115,0.0,0.0,80,0.00,,,0.00,Wunderground v.1.15,2013-08-27 16:26:00,
2013-08-27 12:31:00,78.0,71.7,29.99,South,171,0.0,1.0,81,0.00,,,0.00,Wunderground v.1.15,2013-08-27 16:31:00,
2013-08-27 12:36:00,77.7,71.4,29.99,ESE,121,1.0,2.0,81,0.00,,,0.00,Wunderground v.1.15,2013-08-27 16:36:00,
2013-08-27 12:41:00,77.5,71.6,29.99,SE,145,1.0,6.0,82,0.00,,,0.00,Wunderground v.1.15,2013-08-27 16:41:00,
2013-08-27 12:47:00,76.9,70.6,29.98,ESE,118,2.0,6.0,81,0.00,,,0.00,Wunderground v.1.15,2013-08-27 16:47:00,
2013-08-27 12:52:00,76.4,71.2,29.98,SW,223,2.0,3.0,84,0.00,,,0.00,Wunderground v.1.15,2013-08-27 16:52:00,
2013-08-27 12:57:00,76.0,71.2,29.98,SE,141,1.0,3.0,85,0.00,,,0.00,Wunderground v.1.15,2013-08-27 16:57:00,
2013-08-27 13:03:00,75.5,71.4,29.98,SE,130,1.0,2.0,87,0.00,,,0.00,Wunderground v.1.15,2013-08-27 17:03:00,
2013-08-27 13:08:00,75.2,71.1,29.97,SE,128,1.0,2.0,87,0.00,,,0.00,Wunderground v.1.15,2013-08-27 17:08:00,
2013-08-27 13:13:00,75.1,71.3,29.97,SE,128,0.0,0.0,88,0.00,,,0.00,Wunderground v.1.15,2013-08-27 17:13:00,
2013-08-27 13:18:00,75.2,71.7,29.97,SE,127,0.0,1.0,89,0.00,,,0.00,Wunderground v.1.15,2013-08-27 17:18:00,
2013-08-27 13:23:00,75.2,71.7,29.97,SE,124,0.0,2.0,89,0.00,,,0.00,Wunderground v.1.15,2013-08-27 17:23:00,
2013-08-27 13:28:00,75.3,72.2,29.96,SE,124,0.0,2.0,90,0.00,,,0.00,Wunderground v.1.15,2013-08-27 17:28:00,
2013-08-27 13:33:00,75.5,72.0,29.96,SE,124,0.0,0.0,89,0.00,,,0.00,Wunderground v.1.15,2013-08-27 17:33:00,
2013-08-27 13:39:00,75.7,72.2,29.96,SE,125,0.0,0.0,89,0.00,,,0.00,Wunderground v.1.15,2013-08-27 17:39:00,
2013-08-27 13:44:00,76.0,72.2,29.95,SE,124,0.0,2.0,88,0.00,,,0.00,Wunderground v.1.15,2013-08-27 17:44:00,
2013-08-27 13:49:00,76.3,72.8,29.95,SE,124,1.0,2.0,89,0.00,,,0.00,Wunderground v.1.15,2013-08-27 17:49:00,
2013-08-27 13:54:00,76.7,72.2,29.95,NNE,19,0.0,2.0,86,0.00,,,0.00,Wunderground v.1.15,2013-08-27 17:54:00,
2013-08-27 13:59:00,76.9,72.4,29.94,ESE,120,0.0,2.0,86,0.00,,,0.00,Wunderground v.1.15,2013-08-27 17:59:00,
2013-08-27 14:05:00,77.3,72.1,29.94,ESE,117,1.0,3.0,84,0.00,,,0.00,Wunderground v.1.15,2013-08-27 18:05:00,
2013-08-27 14:10:00,77.6,72.0,29.94,SSE,150,1.0,1.0,83,0.00,,,0.00,Wunderground v.1.15,2013-08-27 18:10:00,
2013-08-27 14:15:00,78.0,72.1,29.94,SSE,163,0.0,3.0,82,0.00,,,0.00,Wunderground v.1.15,2013-08-27 18:15:00,
2013-08-27 14:20:00,78.3,72.7,29.93,ESE,103,1.0,1.0,83,0.00,,,0.00,Wunderground v.1.15,2013-08-27 18:20:00,
2013-08-27 14:25:00,78.7,73.1,29.94,ESE,105,0.0,1.0,83,0.00,,,0.00,Wunderground v.1.15,2013-08-27 18:25:00,
2013-08-27 14:30:00,79.1,73.5,29.93,SE,126,0.0,0.0,83,0.00,,,0.00,Wunderground v.1.15,2013-08-27 18:30:00,
2013-08-27 14:35:00,79.4,73.1,29.93,ESE,113,0.0,0.0,81,0.00,,,0.00,Wunderground v.1.15,2013-08-27 18:35:00,
2013-08-27 14:40:00,79.7,73.0,29.93,ESE,113,0.0,0.0,80,0.00,,,0.00,Wunderground v.1.15,2013-08-27 18:40:00,
2013-08-27 14:46:00,79.9,73.2,29.93,ESE,113,0.0,0.0,80,0.00,,,0.00,Wunderground v.1.15,2013-08-27 18:46:00,
2013-08-27 14:51:00,80.1,73.0,29.93,ESE,113,0.0,0.0,79,0.00,,,0.00,Wunderground v.1.15,2013-08-27 18:51:00,
2013-08-27 14:57:00,80.3,73.2,29.92,ESE,118,0.0,1.0,79,0.00,,,0.00,Wunderground v.1.15,2013-08-27 18:57:00,
2013-08-27 15:02:00,80.5,73.0,29.92,ESE,118,0.0,0.0,78,0.00,,,0.00,Wunderground v.1.15,2013-08-27 19:02:00,
2013-08-27 15:07:00,80.6,73.5,29.92,ESE,118,0.0,1.0,79,0.00,,,0.00,Wunderground v.1.15,2013-08-27 19:07:00,
2013-08-27 15:12:00,80.6,73.5,29.92,ESE,118,0.0,1.0,79,0.00,,,0.00,Wunderground v.1.15,2013-08-27 19:12:00,
2013-08-27 15:18:00,80.2,72.7,29.91,ESE,118,0.0,1.0,78,0.00,,,0.00,Wunderground v.1.15,2013-08-27 19:18:00,
2013-08-27 15:23:00,79.8,73.1,29.92,ESE,118,0.0,0.0,80,0.00,,,0.00,Wunderground v.1.15,2013-08-27 19:23:00,
2013-08-27 15:28:00,79.5,70.9,29.92,ESE,118,0.0,1.0,75,0.00,,,0.00,Wunderground v.1.15,2013-08-27 19:28:00,
2013-08-27 15:33:00,79.7,72.6,29.92,ESE,118,0.0,0.0,79,0.00,,,0.00,Wunderground v.1.15,2013-08-27 19:33:00,
2013-08-27 15:39:00,79.7,73.0,29.92,ESE,107,0.0,0.0,80,0.00,,,0.00,Wunderground v.1.15,2013-08-27 19:39:00,
2013-08-27 15:45:00,79.5,71.7,29.92,ESE,112,0.0,0.0,77,0.00,,,0.00,Wunderground v.1.15,2013-08-27 19:45:00,
2013-08-27 15:50:00,79.2,72.1,29.91,ESE,112,0.0,0.0,79,0.00,,,0.00,Wunderground v.1.15,2013-08-27 19:50:00,
2013-08-27 15:55:00,79.1,72.0,29.92,ESE,121,0.0,0.0,79,0.00,,,0.00,Wunderground v.1.15,2013-08-27 19:55:00,
2013-08-27 16:00:00,79.1,71.3,29.92,ESE,121,0.0,0.0,77,0.00,,,0.00,Wunderground v.1.15,2013-08-27 20:00:00,
2013-08-27 16:06:00,78.9,71.1,29.92,ESE,121,0.0,0.0,77,0.00,,,0.00,Wunderground v.1.15,2013-08-27 20:06:00,
2013-08-27 16:11:00,78.6,70.4,29.92,ESE,121,0.0,0.0,76,0.00,,,0.00,Wunderground v.1.15,2013-08-27 20:11:00,
2013-08-27 16:16:00,78.5,72.2,29.91,ESE,121,0.0,0.0,81,0.00,,,0.00,Wunderground v.1.15,2013-08-27 20:16:00,
2013-08-27 16:22:00,78.0,72.1,29.92,ESE,121,0.0,0.0,82,0.00,,,0.00,Wunderground v.1.15,2013-08-27 20:22:00,
2013-08-27 16:27:00,77.5,71.2,29.92,ESE,121,0.0,0.0,81,0.00,,,0.00,Wunderground v.1.15,2013-08-27 20:27:00,
2013-08-27 16:32:00,77.1,71.2,29.92,ESE,121,0.0,0.0,82,0.00,,,0.00,Wunderground v.1.15,2013-08-27 20:32:00,
2013-08-27 16:37:00,76.9,72.0,29.91,ESE,121,0.0,0.0,85,0.00,,,0.00,Wunderground v.1.15,2013-08-27 20:37:00,
2013-08-27 16:43:00,76.7,71.5,29.91,ESE,121,0.0,0.0,84,0.00,,,0.00,Wunderground v.1.15,2013-08-27 20:43:00,
2013-08-27 16:48:00,76.6,71.7,29.92,ESE,121,0.0,0.0,85,0.00,,,0.00,Wunderground v.1.15,2013-08-27 20:48:00,
2013-08-27 16:53:00,76.4,71.6,29.92,ESE,121,0.0,0.0,85,0.00,,,0.00,Wunderground v.1.15,2013-08-27 20:53:00,
2013-08-27 16:59:00,76.4,71.9,29.92,ESE,121,0.0,0.0,86,0.00,,,0.00,Wunderground v.1.15,2013-08-27 20:59:00,
2013-08-27 17:04:00,76.4,71.6,29.92,ESE,121,0.0,1.0,85,0.00,,,0.00,Wunderground v.1.15,2013-08-27 21:04:00,
2013-08-27 17:09:00,76.7,72.2,29.92,ENE,59,0.0,1.0,86,0.00,,,0.00,Wunderground v.1.15,2013-08-27 21:09:00,
2013-08-27 17:15:00,77.5,70.8,29.92,ENE,78,0.0,1.0,80,0.00,,,0.00,Wunderground v.1.15,2013-08-27 21:15:00,
2013-08-27 17:20:00,78.2,71.5,29.92,ENE,70,0.0,0.0,80,0.00,,,0.00,Wunderground v.1.15,2013-08-27 21:20:00,
2013-08-27 17:25:00,78.6,71.2,29.92,ESE,103,0.0,1.0,78,0.00,,,0.00,Wunderground v.1.15,2013-08-27 21:25:00,
2013-08-27 17:30:00,78.7,72.4,29.92,SE,134,1.0,1.0,81,0.00,,,0.00,Wunderground v.1.15,2013-08-27 21:30:00,
2013-08-27 17:36:00,78.6,71.5,29.92,East,97,0.0,1.0,79,0.00,,,0.00,Wunderground v.1.15,2013-08-27 21:36:00,
2013-08-27 17:42:00,78.6,72.6,29.92,East,98,0.0,0.0,82,0.00,,,0.00,Wunderground v.1.15,2013-08-27 21:42:00,
2013-08-27 17:47:00,78.4,71.0,29.92,East,98,0.0,0.0,78,0.00,,,0.00,Wunderground v.1.15,2013-08-27 21:47:00,
2013-08-27 17:52:00,78.5,71.4,29.92,East,98,0.0,0.0,79,0.00,,,0.00,Wunderground v.1.15,2013-08-27 21:52:00,
2013-08-27 17:57:00,78.4,72.8,29.92,South,173,0.0,3.0,83,0.00,,,0.00,Wunderground v.1.15,2013-08-27 21:57:00,
2013-08-27 18:03:00,78.2,72.6,29.92,SE,137,0.0,0.0,83,0.00,,,0.00,Wunderground v.1.15,2013-08-27 22:03:00,
2013-08-27 18:08:00,78.1,72.5,29.92,SE,137,0.0,0.0,83,0.00,,,0.00,Wunderground v.1.15,2013-08-27 22:08:00,
2013-08-27 18:13:00,77.9,71.6,29.92,SSE,153,0.0,0.0,81,0.00,,,0.00,Wunderground v.1.15,2013-08-27 22:13:00,
2013-08-27 18:19:00,77.8,70.8,29.92,SE,132,0.0,0.0,79,0.00,,,0.00,Wunderground v.1.15,2013-08-27 22:19:00,
2013-08-27 18:24:00,77.7,71.8,29.92,SW,216,0.0,0.0,82,0.00,,,0.00,Wunderground v.1.15,2013-08-27 22:24:00,
2013-08-27 18:29:00,77.5,71.9,29.92,SW,216,0.0,0.0,83,0.00,,,0.00,Wunderground v.1.15,2013-08-27 22:29:00,
2013-08-27 18:34:00,77.2,72.0,29.92,SW,216,0.0,0.0,84,0.00,,,0.00,Wunderground v.1.15,2013-08-27 22:34:00,
2013-08-27 18:40:00,76.9,71.7,29.92,SSW,201,0.0,0.0,84,0.00,,,0.00,Wunderground v.1.15,2013-08-27 22:40:00,
2013-08-27 18:45:00,76.7,71.5,29.93,NE,53,0.0,1.0,84,0.00,,,0.00,Wunderground v.1.15,2013-08-27 22:45:00,
2013-08-27 18:50:00,76.5,71.3,29.93,NE,56,0.0,0.0,84,0.00,,,0.00,Wunderground v.1.15,2013-08-27 22:50:00,
2013-08-27 18:56:00,76.4,71.2,29.93,ENE,77,0.0,0.0,84,0.00,,,0.00,Wunderground v.1.15,2013-08-27 22:56:00,
2013-08-27 19:02:00,76.4,71.2,29.93,SSE,158,0.0,0.0,84,0.00,,,0.00,Wunderground v.1.15,2013-08-27 23:02:00,
2013-08-27 19:07:00,76.3,71.1,29.93,SSE,158,0.0,0.0,84,0.00,,,0.00,Wunderground v.1.15,2013-08-27 23:07:00,
2013-08-27 19:12:00,76.1,71.3,29.93,SSE,158,0.0,0.0,85,0.00,,,0.00,Wunderground v.1.15,2013-08-27 23:12:00,
2013-08-27 19:17:00,75.7,70.9,29.93,ENE,67,0.0,0.0,85,0.00,,,0.00,Wunderground v.1.15,2013-08-27 23:17:00,
2013-08-27 19:23:00,75.2,70.4,29.93,ENE,67,0.0,0.0,85,0.00,,,0.00,Wunderground v.1.15,2013-08-27 23:23:00,
2013-08-27 19:28:00,74.8,70.3,29.93,ENE,67,0.0,0.0,86,0.00,,,0.00,Wunderground v.1.15,2013-08-27 23:28:00,
2013-08-27 19:33:00,74.5,70.0,29.93,ENE,67,0.0,0.0,86,0.00,,,0.00,Wunderground v.1.15,2013-08-27 23:33:00,
2013-08-27 19:39:00,74.1,70.0,29.93,ENE,67,0.0,0.0,87,0.00,,,0.00,Wunderground v.1.15,2013-08-27 23:39:00,
2013-08-27 19:44:00,73.8,69.7,29.93,ENE,67,0.0,0.0,87,0.00,,,0.00,Wunderground v.1.15,2013-08-27 23:44:00,
2013-08-27 19:49:00,73.5,69.7,29.93,ENE,67,0.0,0.0,88,0.00,,,0.00,Wunderground v.1.15,2013-08-27 23:49:00,
2013-08-27 19:55:00,73.2,69.8,29.93,ENE,67,0.0,0.0,89,0.00,,,0.00,Wunderground v.1.15,2013-08-27 23:55:00,
2013-08-27 20:00:00,72.9,69.5,29.93,ENE,67,0.0,0.0,89,0.00,,,0.00,Wunderground v.1.15,2013-08-28 00:00:00,
2013-08-27 20:06:00,72.6,69.5,29.94,ENE,67,0.0,0.0,90,0.00,,,0.00,Wunderground v.1.15,2013-08-28 00:06:00,
2013-08-27 20:11:00,72.5,69.4,29.93,ENE,67,0.0,0.0,90,0.00,,,0.00,Wunderground v.1.15,2013-08-28 00:11:00,
2013-08-27 20:17:00,72.3,69.2,29.93,ENE,67,0.0,0.0,90,0.00,,,0.00,Wunderground v.1.15,2013-08-28 00:17:00,
2013-08-27 20:22:00,72.2,69.4,29.93,ENE,67,0.0,0.0,91,0.00,,,0.00,Wunderground v.1.15,2013-08-28 00:22:00,
2013-08-27 20:27:00,72.1,69.3,29.93,ENE,67,0.0,0.0,91,0.00,,,0.00,Wunderground v.1.15,2013-08-28 00:27:00,
2013-08-27 20:33:00,72.0,69.2,29.93,ENE,67,0.0,0.0,91,0.00,,,0.00,Wunderground v.1.15,2013-08-28 00:33:00,
2013-08-27 20:38:00,71.9,69.1,29.93,ENE,67,0.0,0.0,91,0.00,,,0.00,Wunderground v.1.15,2013-08-28 00:38:00,
2013-08-27 20:43:00,71.9,69.4,29.93,ENE,67,0.0,0.0,92,0.00,,,0.00,Wunderground v.1.15,2013-08-28 00:43:00,
2013-08-27 20:45:00,71.9,69.4,29.93,ENE,67,0.0,0.0,92,0.00,,,0.00,Wunderground v.1.15,2013-08-28 00:45:00,
2013-08-27 20:50:00,71.8,69.3,29.93,ENE,67,0.0,0.0,92,0.00,,,0.00,Wunderground v.1.15,2013-08-28 00:50:00,
2013-08-27 20:55:00,71.9,69.4,29.93,ENE,67,0.0,0.0,92,0.00,,,0.00,Wunderground v.1.15,2013-08-28 00:55:00,
2013-08-27 21:00:00,71.9,69.4,29.93,ENE,67,0.0,0.0,92,0.00,,,0.00,Wunderground v.1.15,2013-08-28 01:00:00,
2013-08-27 21:06:00,71.9,69.4,29.93,ENE,67,0.0,0.0,92,0.00,,,0.00,Wunderground v.1.15,2013-08-28 01:06:00,
2013-08-27 21:12:00,71.9,69.4,29.94,ENE,67,0.0,0.0,92,0.00,,,0.00,Wunderground v.1.15,2013-08-28 01:12:00,
2013-08-27 21:17:00,72.0,69.5,29.94,ENE,67,0.0,0.0,92,0.00,,,0.00,Wunderground v.1.15,2013-08-28 01:17:00,
2013-08-27 21:22:00,72.0,69.9,29.94,ENE,67,0.0,0.0,93,0.00,,,0.00,Wunderground v.1.15,2013-08-28 01:22:00,
2013-08-27 21:28:00,72.0,69.9,29.94,ENE,67,0.0,0.0,93,0.00,,,0.00,Wunderground v.1.15,2013-08-28 01:28:00,
2013-08-27 21:33:00,72.0,69.5,29.94,ENE,67,0.0,0.0,92,0.00,,,0.00,Wunderground v.1.15,2013-08-28 01:33:00,
2013-08-27 21:38:00,71.9,69.4,29.93,ENE,67,0.0,0.0,92,0.00,,,0.00,Wunderground v.1.15,2013-08-28 01:38:00,
2013-08-27 21:43:00,71.9,69.4,29.93,ENE,67,0.0,0.0,92,0.00,,,0.00,Wunderground v.1.15,2013-08-28 01:43:00,
2013-08-27 21:49:00,71.8,69.7,29.93,ENE,67,0.0,0.0,93,0.00,,,0.00,Wunderground v.1.15,2013-08-28 01:49:00,
2013-08-27 21:54:00,71.8,69.7,29.94,ENE,67,0.0,0.0,93,0.00,,,0.00,Wunderground v.1.15,2013-08-28 01:54:00,
2013-08-27 21:59:00,71.7,69.6,29.94,ENE,67,0.0,0.0,93,0.00,,,0.00,Wunderground v.1.15,2013-08-28 01:59:00,
2013-08-27 22:05:00,71.7,69.6,29.94,ENE,67,0.0,0.0,93,0.00,,,0.00,Wunderground v.1.15,2013-08-28 02:05:00,
2013-08-27 22:10:00,71.6,69.5,29.94,ENE,67,0.0,0.0,93,0.00,,,0.00,Wunderground v.1.15,2013-08-28 02:10:00,
2013-08-27 22:16:00,71.6,69.5,29.94,ENE,67,0.0,0.0,93,0.00,,,0.00,Wunderground v.1.15,2013-08-28 02:16:00,
2013-08-27 22:21:00,71.5,69.4,29.94,ENE,67,0.0,0.0,93,0.00,,,0.00,Wunderground v.1.15,2013-08-28 02:21:00,
2013-08-27 22:27:00,71.5,69.4,29.94,ENE,67,0.0,0.0,93,0.00,,,0.00,Wunderground v.1.15,2013-08-28 02:27:00,
2013-08-27 22:32:00,71.5,69.4,29.94,ENE,67,0.0,0.0,93,0.00,,,0.00,Wunderground v.1.15,2013-08-28 02:32:00,
2013-08-27 22:37:00,71.4,69.6,29.94,ENE,67,0.0,0.0,94,0.00,,,0.00,Wunderground v.1.15,2013-08-28 02:37:00,
2013-08-27 22:42:00,71.4,69.6,29.94,ENE,67,0.0,0.0,94,0.00,,,0.00,Wunderground v.1.15,2013-08-28 02:42:00,
2013-08-27 22:47:00,71.4,69.6,29.94,ENE,67,0.0,0.0,94,0.00,,,0.00,Wunderground v.1.15,2013-08-28 02:47:00,
2013-08-27 22:53:00,71.4,69.6,29.94,ENE,67,0.0,0.0,94,0.00,,,0.00,Wunderground v.1.15,2013-08-28 02:53:00,
2013-08-27 22:58:00,71.4,69.6,29.94,ENE,67,0.0,0.0,94,0.00,,,0.00,Wunderground v.1.15,2013-08-28 02:58:00,
2013-08-27 23:04:00,71.4,69.6,29.94,ENE,67,0.0,0.0,94,0.00,,,0.00,Wunderground v.1.15,2013-08-28 03:04:00,
2013-08-27 23:09:00,71.3,69.5,29.94,ENE,67,0.0,0.0,94,0.00,,,0.00,Wunderground v.1.15,2013-08-28 03:09:00,
2013-08-27 23:14:00,71.3,69.5,29.94,ENE,67,0.0,0.0,94,0.00,,,0.00,Wunderground v.1.15,2013-08-28 03:14:00,
2013-08-27 23:20:00,71.3,69.5,29.94,ENE,67,0.0,0.0,94,0.00,,,0.00,Wunderground v.1.15,2013-08-28 03:20:00,
2013-08-27 23:25:00,71.4,69.6,29.94,ENE,67,0.0,0.0,94,0.00,,,0.00,Wunderground v.1.15,2013-08-28 03:25:00,
2013-08-27 23:30:00,71.4,69.6,29.94,ENE,67,0.0,0.0,94,0.00,,,0.00,Wunderground v.1.15,2013-08-28 03:30:00,
2013-08-27 23:35:00,71.4,69.6,29.93,ENE,67,0.0,0.0,94,0.00,,,0.00,Wunderground v.1.15,2013-08-28 03:35:00,
2013-08-27 23:41:00,71.4,69.6,29.93,ENE,67,0.0,0.0,94,0.00,,,0.00,Wunderground v.1.15,2013-08-28 03:41:00,
2013-08-27 23:46:00,71.4,69.6,29.93,ENE,67,0.0,0.0,94,0.00,,,0.00,Wunderground v.1.15,2013-08-28 03:46:00,
2013-08-27 23:51:00,71.4,69.6,29.93,ENE,67,0.0,0.0,94,0.00,,,0.01,Wunderground v.1.15,2013-08-28 03:51:00,
2013-08-27 23:56:00,71.4,69.6,29.93,ENE,67,0.0,0.0,94,0.00,,,0.01,Wunderground v.1.15,2013-08-28 03:56:00,